#timestamp,LO_Frequency,Hit,StdDev 
1650920415.7,286047002.7,N
1650920435.6,286047002.3,N
1650920455.4,286047002.8,N
1650920475.2,286047002.3,N
1650920495.1,286047001.4,N
1650920496.0,286047001.4,N
1650920515.8,286047003.3,N
1650920535.7,286047003.5,Y
1650920555.5,286046999.8,P
1650920575.3,286047000.9,N
1650920595.2,286047000.4,N
1650920615.0,286047001.1,N
1650920615.9,286047001.1,N
1650920635.8,286047000.1,N
1650920655.6,286047000.3,N
1650920675.5,286047000.3,N
1650920695.3,286046999.8,N
1650920715.1,286047000.0,N
1650920735.9,286047001.1,N
1650920755.7,286046998.4,N
1650920775.5,286046998.6,N
1650920795.4,286046998.5,N
1650920815.2,286047001.0,N
1650920835.1,286047000.1,N
1650920836.0,286047000.1,N
1650920855.8,286047000.9,N
1650920875.6,286047000.7,N
1650920895.5,286046998.6,N
1650920915.3,286046999.9,N
1650920935.1,286047000.7,N
1650920955.9,286047001.1,N
1650920975.7,286047001.2,N
1650920995.6,286047001.0,N
1650921015.4,286046998.2,N
1650921035.2,286046998.7,N
1650921055.1,286047001.0,N
1650921056.0,286047001.0,N
1650921075.8,286047001.2,N
1650921095.7,286046999.0,N
1650921115.5,286046998.5,N
1650921135.3,286047000.1,N
1650921155.2,286047002.4,N
1650921175.0,286047002.6,N
1650921175.9,286047002.6,N
1650921195.7,286047002.6,N
1650921215.6,286047003.5,N
1650921235.4,286047001.8,N
1650921255.3,286047001.6,N
1650921275.1,286047002.8,N
1650921276.0,286047002.8,N
1650921295.8,286047000.6,N
1650921315.7,286047002.2,N
1650921335.5,286047000.0,N
1650921355.3,286047000.5,N
1650921375.2,286047002.6,N
1650921395.0,286047002.4,N
1650921395.9,286047002.4,N
1650921415.8,286047001.9,N
1650921435.6,286046998.2,N
1650921455.4,286047000.7,N
1650921475.3,286047002.3,N
1650921495.1,286047002.3,N
1650921515.9,286047002.3,N
1650921535.7,286047002.5,N
1650921555.6,286047000.1,N
1650921575.4,286047002.4,N
1650921595.2,286047002.6,N
1650921615.1,286047002.4,N
1650921616.0,286047002.4,N
1650921635.8,286047002.4,N
1650921655.7,286047002.4,N
1650921675.5,286047004.0,Y
1650921695.3,286047000.2,P
1650921715.2,286047000.5,N
1650921735.0,286046999.9,N
1650921735.9,286046999.9,N
1650921755.8,286046998.1,N
1650921775.6,286046998.1,N
1650921795.4,286047000.5,N
1650921815.3,286047001.0,N
1650921835.1,286047000.6,N
1650921855.8,286046998.3,N
1650921875.7,286047000.8,N
1650921895.5,286046999.7,N
1650921915.4,286047002.4,N
1650921935.2,286047004.4,Y
1650921955.0,286047004.2,P
1650921955.9,286047004.2,N
1650921975.8,286047001.9,N
1650921995.6,286047000.2,N
1650922015.4,286047000.6,N
1650922035.3,286047000.6,N
1650922055.1,286046998.7,N
1650922075.9,286046996.7,N
1650922095.7,286046996.7,N
1650922115.5,286046996.6,N
1650922135.4,286046996.8,N
1650922155.2,286046997.2,N
1650922175.1,286046994.9,N
1650922176.0,286046994.9,N
1650922195.8,286046997.9,N
1650922215.6,286046997.7,N
1650922235.5,286046996.7,N
1650922255.3,286046997.4,N
1650922275.2,286046996.9,N
1650922295.9,286046999.1,N
1650922315.7,286046997.8,N
1650922335.6,286046996.6,N
1650922355.4,286046997.0,N
1650922375.2,286046999.1,N
1650922395.1,286046997.8,N
1650922396.0,286046997.8,N
1650922415.8,286046997.9,N
1650922435.7,286046998.0,N
1650922455.5,286046996.9,N
1650922475.3,286046996.7,N
1650922495.2,286046995.3,N
1650922515.0,286046997.9,N
1650922515.9,286046997.9,N
1650922535.8,286046995.3,Y
1650922555.6,286046998.8,P
1650922575.4,286046996.8,P
1650922595.3,286046997.7,N
1650922615.1,286046997.2,Y
1650922635.8,286046999.6,P
1650922655.7,286046999.4,N
1650922675.5,286046997.0,P
1650922695.4,286046999.2,N
1650922715.2,286046997.1,N
1650922735.0,286046997.1,N
1650922735.9,286046997.1,N
1650922755.8,286046999.1,N
1650922775.6,286046999.4,N
1650922795.4,286046997.2,N
1650922815.3,286046997.3,N
1650922835.1,286046998.0,N
1650922855.9,286046995.6,Y
1650922875.7,286046996.9,P
1650922895.5,286046999.2,N
1650922915.4,286046997.3,N
1650922935.2,286046998.0,N
1650922955.0,286046997.4,Y
1650922956.0,286046997.4,P
1650922975.8,286047000.8,P
1650922995.6,286047000.4,N
1650923015.5,286047000.6,N
1650923035.3,286047000.6,N
1650923055.1,286047000.4,N
1650923075.9,286046999.7,N
1650923095.7,286047002.8,N
1650923115.5,286047002.1,N
1650923135.4,286046999.9,N
1650923155.2,286047002.4,N
1650923175.1,286047002.8,N
1650923176.0,286047002.8,N
1650923195.8,286047000.1,N
1650923215.6,286046999.8,N
1650923235.5,286047000.3,N
1650923255.3,286046998.3,N
1650923275.1,286046997.0,N
1650923295.9,286046999.6,N
1650923315.7,286046998.8,N
1650923335.6,286046998.3,N
1650923355.4,286046998.5,N
1650923375.2,286046998.1,N
1650923395.1,286046999.0,N
1650923396.0,286046999.0,N
1650923415.8,286046999.4,N
1650923435.7,286046997.1,N
1650923455.5,286046997.8,N
1650923475.3,286046997.2,N
1650923495.2,286046997.9,N
1650923515.0,286046997.8,N
1650923515.9,286046997.8,N
1650923535.8,286046998.4,N
1650923555.3,286046997.3,N
1650923575.2,286046997.8,N
1650923595.0,286046995.5,N
1650923595.9,286046995.5,N
1650923615.8,286046995.9,N
1650923635.6,286046993.4,Y
1650923655.5,286046997.7,P
1650923675.3,286046999.6,N
1650923695.1,286046999.1,N
1650923715.9,286046999.6,N
1650923735.7,286046997.1,Y
1650923755.6,286046999.1,P
1650923775.4,286046999.2,P
1650923795.2,286046999.0,P
1650923815.1,286046998.9,Y
1650923816.0,286046998.9,P
1650923835.8,286047000.9,P
1650923855.6,286046998.7,N
1650923875.5,286047001.2,N
1650923895.3,286047000.5,N
1650923915.2,286047000.9,N
1650923935.9,286047000.9,N
1650923955.7,286047000.8,N
1650923975.6,286046998.1,N
1650923995.4,286046998.4,N
